This demonstration page uses our WeatherBlox Daily Observations layout. Learn more.

36.17497, -115.13722

Hourly Observations for June 13, 2020

Temp ( °F °C ) Dew Point ( °F °C ) Humidity (%) Winds ( mph kmh ) Pressure ( in mb ) Visibility ( mi km ) Precip ( " mm )
12:53 am 00:53 Clear 81 27.2 27 -2.8 14 14 WSW 21 33 29.77 1008 10 16.0934 0 0
1:00 am 01:00 Clear 80 26.7 28 -2.2 15 15 SW 20 31 29.68 1005 10 16.0934 0 0
1:53 am 01:53 Clear 79 26.1 28 -2.2 15 15 WSW 12 19 29.79 1009 10 16.0934 0 0
2:53 am 02:53 Clear 77 25 34 1.1 21 21 S 12 19 29.77 1008 10 16.0934 0 0
3:53 am 03:53 Clear 76 24.4 34 1.1 22 22 S 14 22 29.78 1008 10 16.0934 0 0
4:53 am 04:53 Clear 74 23.3 32 0 21 21 SSW 20 31 29.76 1008 10 16.0934 0 0
5:53 am 05:53 Sunny 75 23.9 29 -1.7 18 18 SSE 20 31 29.77 1008 10 16.0934 0 0
6:00 am 06:00 Sunny 74 23.3 28 -2.2 18 18 SSE 15 24 29.71 1006 10 16.0934 0 0
6:53 am 06:53 Sunny 75 23.9 27 -2.8 17 17 S 16 26 29.78 1009 10 16.0934 0 0
7:53 am 07:53 Sunny 76 24.4 30 -1.1 18 18 SSE 17 28 29.8 1009 10 16.0934 0 0
8:53 am 08:53 Sunny 76 24.4 32 0 20 20 SSE 15 24 29.83 1010 10 16.0934 0 0
9:53 am 09:53 Sunny 80 26.7 24 -4.4 13 13 S 17 28 29.8 1009 10 16.0934 0 0
10:53 am 10:53 Sunny 82 27.8 21 -6.1 10 10 SSE 16 26 29.8 1009 10 16.0934 0 0
11:53 am 11:53 Sunny 84 28.9 20 -6.7 9 9 SSE 14 22 29.78 1009 10 16.0934 0 0
12:53 pm 12:53 Sunny 87 30.6 16 -8.9 7 7 S 18 30 29.76 1008 10 16.0934 0 0
1:53 pm 13:53 Sunny 89 31.7 17 -8.3 7 7 S 17 28 29.73 1007 10 16.0934 0 0
2:40 pm 14:40 Sunny 90 32.2 18 -7.8 7 7 SW 18 30 29.57 1001 10 16.0934 0 0
2:53 pm 14:53 Sunny 90 32.2 17 -8.3 7 7 SW 17 28 29.71 1006 10 16.0934 0 0
3:53 pm 15:53 Sunny 90 32.2 24 -4.4 9 9 SW 17 28 29.68 1005 10 16.0934 0 0
4:53 pm 16:53 Sunny 90 32.2 24 -4.4 9 9 SSW 20 31 29.67 1005 10 16.0934 0 0
5:53 pm 17:53 Sunny 90 32.2 24 -4.4 9 9 SW 21 33 29.65 1004 10 16.0934 0 0
6:53 pm 18:53 Sunny 89 31.7 23 -5 9 9 SW 18 30 29.66 1005 10 16.0934 0 0
7:53 pm 19:53 Sunny 87 30.6 26 -3.3 11 11 WSW 13 20 29.68 1005 10 16.0934 0 0
8:53 pm 20:53 Clear 84 28.9 28 -2.2 13 13 SW 10 17 29.7 1006 10 16.0934 0 0
9:53 pm 21:53 Clear 82 27.8 27 -2.8 13 13 SSW 10 17 29.72 1006 10 16.0934 0 0
10:53 pm 22:53 Clear 80 26.7 28 -2.2 15 15 SSW 14 22 29.72 1006 10 16.0934 0 0
11:53 pm 23:53 Clear 79 26.1 28 -2.2 15 15 SSW 10 17 29.72 1006 10 16.0934 0 0

Powered by AerisWeather